Hoquiam, WA

2:46 PM PST on February 19, 2017 (GMT -0800)
Bowerman

Weather History for KHQM - May, 2014

Change the Weather History Date:

Tuesday, May 6, 2014

  Actual Average Record
Temperature  
Mean Temperature 52 °F 52 °F  
Max Temperature 57 °F 59 °F 83 °F (1987)
Min Temperature 46 °F 45 °F 31 °F (1965)
Degree Days  
Heating Degree Days 13 13  
Month to date heating degree days 55 83  
Cooling Degree Days 0 0  
Month to date cooling degree days 4 0  
Year to date cooling degree days 8 0  
Growing Degree Days 2 (Base 50)    
Moisture  
Dew Point 44 °F    
Average Humidity 76    
Maximum Humidity 93    
Minimum Humidity 59    
Precipitation  
Precipitation 0.00 in 0.13 in 1.29 in (1960)
Month to date precipitation 2.62 0.75  
Year to date precipitation 37.56 30.38  
Sea Level Pressure  
Sea Level Pressure 30.07 in    
Wind  
Wind Speed 8 mph (WSW)    
Max Wind Speed 16 mph    
Max Gust Speed 20 mph    
Visibility 8 miles    
Events      
T = Trace of Precipitation, MM = Missing Value Source: NWS Daily Summary

Daily Weather History Graph

Daily Weather History Graph

Search for Another Location

Airport or City:

Trip Planner

Search our weather history database for the weather conditions in past years. The results will help you decide how hot, cold, wet, or windy it might be!

Date:

Astronomy

May. 06, 2014 Rise Set
Actual Time 5:52 AM PDT 8:33 PM PDT
Civil Twilight 5:17 AM PDT 9:07 PM PDT
Nautical Twilight 4:34 AM PDT 9:51 PM PDT
Astronomical Twilight 3:43 AM PDT 10:43 PM PDT
Moon 12:19 PM PDT (5/6) 1:51 AM PDT (5/6)
Length of Visible Light 15h 49m
Length of Day
14h 40m
Waxing Crescent, 47% of the Moon is Illuminated
May 6
Waxing Crescent
May 6
First Quarter
May 14
Full
May 21
Last Quarter
May 28
New

Hourly Weather History & Observations

Time (PDT) Temp. Dew Point Humidity Pressure Visibility Wind Dir Wind Speed Gust Speed Precip Events Conditions
12:53 AM 53.1 °F 48.0 °F 83% 30.08 in 10.0 mi WSW 10.4 mph - N/A   Overcast
4:53 AM 50.0 °F 46.0 °F 86% 30.07 in 8.0 mi Calm Calm - N/A   Partly Cloudy
5:39 AM 48.9 °F 46.0 °F 90% 30.06 in 8.0 mi Calm Calm - N/A   Mostly Cloudy
5:53 AM 48.9 °F 46.0 °F 90% 30.06 in 7.0 mi Calm Calm - N/A   Scattered Clouds
6:20 AM 48.0 °F 46.0 °F 93% 30.05 in 7.0 mi West 3.5 mph - N/A   Mostly Cloudy
7:42 AM 51.1 °F 46.9 °F 86% 30.05 in 8.0 mi West 3.5 mph - N/A   Scattered Clouds
7:53 AM 52.0 °F 46.0 °F 80% 30.07 in 8.0 mi West 4.6 mph - N/A   Partly Cloudy
8:43 AM 54.0 °F 46.0 °F 75% 30.06 in 8.0 mi WSW 8.1 mph - N/A   Mostly Cloudy
8:53 AM 54.0 °F 46.0 °F 75% 30.07 in 8.0 mi SW 6.9 mph - N/A   Mostly Cloudy
9:03 AM 54.0 °F 45.0 °F 72% 30.06 in 8.0 mi SW 8.1 mph - N/A   Scattered Clouds
9:53 AM 55.0 °F 46.0 °F 72% 30.07 in 8.0 mi WSW 9.2 mph - N/A   Partly Cloudy
10:53 AM 55.0 °F 45.0 °F 69% 30.08 in 9.0 mi WSW 11.5 mph - N/A   Clear
11:53 AM 55.9 °F 44.1 °F 64% 30.09 in 9.0 mi WSW 13.8 mph - N/A   Clear
12:53 PM 55.9 °F 43.0 °F 62% 30.09 in 9.0 mi West 15.0 mph - N/A   Clear
1:53 PM 55.9 °F 43.0 °F 62% 30.08 in 9.0 mi WSW 10.4 mph - N/A   Partly Cloudy
2:53 PM 55.9 °F 42.1 °F 60% 30.08 in 9.0 mi WSW 11.5 mph - N/A   Partly Cloudy
3:53 PM 55.9 °F 43.0 °F 62% 30.07 in 9.0 mi WSW 10.4 mph - N/A   Partly Cloudy
4:53 PM 55.9 °F 41.0 °F 57% 30.07 in 9.0 mi West 12.7 mph - N/A   Clear
5:53 PM 55.0 °F 41.0 °F 59% 30.06 in 8.0 mi SW 11.5 mph - N/A   Clear
6:53 PM 53.1 °F 41.0 °F 64% 30.05 in 8.0 mi West 8.1 mph - N/A   Scattered Clouds
7:53 PM 53.1 °F 41.0 °F 64% 30.05 in 8.0 mi West 10.4 mph - N/A   Mostly Cloudy
8:53 PM 51.1 °F 43.0 °F 74% 30.06 in 9.0 mi WNW 6.9 mph - N/A   Clear
9:53 PM 50.0 °F 43.0 °F 77% 30.07 in 9.0 mi WNW 5.8 mph - N/A   Mostly Cloudy
10:53 PM 48.0 °F 43.0 °F 83% 30.07 in 9.0 mi WNW 4.6 mph - N/A   Clear
11:53 PM 48.0 °F 42.1 °F 80% 30.07 in 9.0 mi WNW 4.6 mph - N/A   Clear